[[{"header":{"parameterUnit":"m.s-1","parameterCategory":1,"la1":30.2991,"la2":30.254,"lo1":-89.0895,"lo2":-89.0444,"dy":0.0017,"dx":0.0017,"nx":28,"ny":28,"refTime":"2023-08-31T21:00:00:Z","depth":0,"parameterNumber":2,"parameterNumberName":"U-component_of_WINDS"},"data":[0,0,0,0,0,0,0,0,0,0,0,0,0,0,0,0,0,0,0,0,0,0,0,0,0,0,0,0,0,0,0,0,0,0,0,0,0,0,0,0,0,0,0,0,0,0,0,0,0,0,0,0,0,0,0,0,0,0,-1.3717,-1.3716,0,-1.3631,-1.363,-1.3629,-1.3534,-1.3533,-1.3532,-1.353,-1.3441,-1.344,-1.3439,0,0,0,0,0,0,0,0,0,0,0,0,0,-1.3798,-1.3797,-1.3717,-1.3716,-1.3715,-1.3631,-1.363,-1.3629,-1.3535,-1.3533,-1.3531,-1.353,-1.3442,-1.3441,-1.3439,0,0,0,0,0,0,0,0,0,0,0,0,0,-1.3743,-1.3797,-1.3717,-1.3658,-1.3652,-1.3631,-1.363,-1.3629,-1.3535,-1.3533,-1.3531,-1.3529,-1.3442,-1.3441,-1.3439,-1.347,0,0,-1.3434,-1.3433,0,0,0,0,0,0,0,0,-1.3746,-1.374,-1.3668,-1.3662,-1.3655,-1.3591,-1.3626,-1.3575,-1.3535,-1.3579,-1.353,-1.3528,-1.3493,-1.3487,-1.3475,-1.3466,-1.3462,-1.3434,-1.3433,-1.3432,-1.3432,0,0,0,0,0,0,0,-1.375,-1.3743,-1.3683,-1.3667,-1.3659,-1.3635,-1.3625,-1.3616,-1.3549,-1.3575,-1.3568,-1.3559,-1.3489,-1.3477,-1.3473,-1.3461,-1.3434,-1.3433,-1.3432,-1.3431,-1.347,-1.3472,0,0,0,0,0,0,-1.3763,-1.3747,-1.3686,-1.368,-1.3696,-1.3635,-1.3624,-1.3614,-1.3549,-1.3537,-1.3561,-1.3555,-1.3481,-1.3475,-1.3469,-1.3499,-1.3432,-1.3431,-1.343,-1.3468,-1.347,-1.3473,0,0,0,0,0,0,-1.3765,-1.3758,-1.3689,-1.3712,-1.3701,-1.3636,-1.3626,-1.3613,-1.3601,-1.3538,-1.3525,-1.3561,-1.3479,-1.3471,-1.347,-1.3495,-1.343,-1.3429,-1.3466,-1.3469,-1.3472,-1.3561,0,0,0,0,0,0,-1.3768,-1.376,-1.3771,-1.3713,-1.37,-1.3692,-1.3627,-1.3613,-1.3599,-1.359,-1.3535,-1.3524,-1.3477,-1.3473,-1.3468,-1.3491,-1.3427,-1.3463,-1.3467,-1.3471,-1.3555,-1.3566,-1.3576,0,0,0,0,0,-1.3771,-1.38,-1.3772,-1.3766,-1.3713,-1.3694,-1.3687,-1.3633,-1.3601,-1.3612,-1.3571,-1.3525,-1.3493,-1.3474,-1.3468,-1.349,-1.3461,-1.3466,-1.347,-1.355,-1.3564,-1.3576,0,0,0,0,0,0,-1.3864,-1.3791,-1.376,-1.3771,-1.3739,-1.3678,-1.369,-1.3649,-1.3626,-1.3619,-1.3552,-1.354,-1.3546,-1.3518,-1.3498,-1.3516,-1.3471,-1.3474,-1.3534,-1.3546,-1.3556,-1.3562,-1.3426,0,0,0,0,0,-1.3885,-1.3876,-1.3814,-1.3829,-1.3815,-1.3756,-1.3745,-1.3706,-1.367,-1.3657,-1.3615,-1.3582,-1.3564,-1.3554,-1.3534,-1.3551,-1.3536,-1.3564,-1.3574,-1.3583,-1.3586,-1.359,-1.3601,-1.3488,-1.3488,-1.3487,0,0,-1.393,-1.389,-1.3888,-1.3847,-1.3818,-1.3808,-1.3745,-1.3738,-1.373,-1.3655,-1.3651,-1.362,-1.3578,-1.3586,-1.3587,-1.3563,-1.3614,-1.3589,-1.3596,-1.3594,-1.3596,-1.3607,-1.3617,-1.3491,-1.349,-1.349,0,0,-1.4006,-1.3976,-1.3984,-1.3956,-1.3913,-1.3873,-1.3875,-1.382,-1.3796,-1.3791,-1.3734,-1.3723,-1.3695,-1.3666,-1.3649,-1.3714,-1.367,-1.3709,-1.3762,-1.3767,-1.3776,-1.3784,-1.3804,-1.3813,-1.3713,-1.3713,-1.3713,0,-1.4067,-1.4051,-1.3994,-1.399,-1.3973,-1.3905,-1.3912,-1.3888,-1.3841,-1.383,-1.3804,-1.3765,-1.3732,-1.3731,-1.3747,-1.3735,-1.3734,-1.3714,-1.378,-1.3787,-1.3793,-1.3812,-1.382,-1.3718,-1.3718,-1.3717,-1.3717,0,-1.4127,-1.4117,-1.4129,-1.4084,-1.4069,-1.4071,-1.4013,-1.4004,-1.3967,-1.393,-1.3924,-1.3883,-1.3852,-1.3849,-1.3813,-1.3842,-1.3828,-1.3792,-1.3745,-1.381,-1.3826,-1.3833,-1.3725,-1.3723,-1.3722,-1.3721,0,0,-1.4258,-1.4181,-1.4186,-1.4164,-1.4111,-1.4102,-1.4101,-1.4071,-1.4063,-1.4033,-1.4029,-1.4006,-1.3971,-1.3951,-1.3911,-1.3916,-1.3967,-1.3878,-1.3876,-1.3894,-1.3993,-1.4019,-1.4029,-1.3938,-1.394,-1.3941,-1.3996,0,-1.4322,-1.4315,-1.4264,-1.4271,-1.426,-1.4195,-1.4194,-1.416,-1.4126,-1.411,-1.4072,-1.4055,-1.4013,-1.3999,-1.4002,-1.396,-1.3985,-1.3956,-1.3932,-1.3932,-1.3942,-1.4038,-1.4065,-1.412,-1.4002,-1.4003,-1.4004,0,-1.4397,-1.437,-1.4377,-1.4322,-1.4315,-1.4315,-1.4282,-1.427,-1.423,-1.4204,-1.4182,-1.4136,-1.413,-1.4087,-1.4076,-1.4057,-1.4044,-1.4023,-1.4023,-1.4017,-1.397,-1.4032,-1.4136,-1.4143,-1.4014,-1.4014,-1.4013,0,-1.4488,-1.4455,-1.4453,-1.4437,-1.4374,-1.4375,-1.4348,-1.4307,-1.4292,-1.4264,-1.4253,-1.4225,-1.4209,-1.4187,-1.4135,-1.4109,-1.4129,-1.4083,-1.4105,-1.4107,-1.4111,-1.4111,-1.4212,-1.4107,-1.4107,-1.4107,-1.4107,0,-1.4564,-1.457,-1.4493,-1.4493,-1.4497,-1.4437,-1.4443,-1.441,-1.4374,-1.4364,-1.4307,-1.43,-1.4232,-1.4217,-1.4176,-1.4171,-1.4165,-1.4143,-1.4131,-1.4147,-1.4149,-1.4136,-1.4129,-1.4109,-1.4109,-1.4108,-1.4108,0,-1.4666,-1.4616,-1.4609,-1.455,-1.4535,-1.4541,-1.4489,-1.4486,-1.4447,-1.4436,-1.443,-1.437,-1.4348,-1.4295,-1.426,-1.4232,-1.4237,-1.4218,-1.4251,-1.4243,-1.4268,-1.4265,-1.4362,-1.437,-1.4263,-1.4265,-1.4265,0,-1.4717,-1.472,-1.4661,-1.4651,-1.4627,-1.4611,-1.4595,-1.4537,-1.4522,-1.4477,-1.4478,-1.4452,-1.4428,-1.4397,-1.4349,-1.4321,-1.4299,-1.4335,-1.4294,-1.4309,-1.4296,-1.4296,-1.4294,-1.4343,-1.4345,-1.4346,-1.4347,0,-1.4812,-1.4786,-1.4765,-1.4736,-1.4718,-1.4692,-1.4663,-1.4658,-1.4591,-1.4578,-1.4555,-1.4537,-1.45,-1.4474,-1.4439,-1.4411,-1.4367,-1.436,-1.4363,-1.4377,-1.4395,-1.4383,-1.4272,-1.4358,-1.4356,-1.4356,-1.4355,-1.4355,-1.4887,-1.4886,-1.4844,-1.4822,-1.4794,-1.4768,-1.476,-1.4721,-1.4701,-1.4667,-1.4634,-1.4614,-1.4573,-1.4521,-1.4495,-1.4478,-1.4456,-1.4462,-1.4462,-1.4464,-1.447,-1.44,-1.4472,-1.4472,-1.4471,-1.4471,-1.4471,0,-1.4977,-1.4946,-1.4927,-1.4887,-1.487,-1.4832,-1.4797,-1.4785,-1.4768,-1.4734,-1.4711,-1.4684,-1.4658,-1.4609,-1.4579,-1.4574,-1.4553,-1.4568,-1.4566,-1.456,-1.4493,-1.4491,-1.4585,-1.4585,-1.4585,-1.4585,-1.4585,-1.4585,-1.5021,-1.5016,-1.4985,-1.4965,-1.4934,-1.4914,-1.4897,-1.4872,-1.4844,-1.4817,-1.4795,-1.4763,-1.4722,-1.4688,-1.4662,-1.4648,-1.4639,-1.4659,-1.4639,-1.4576,-1.4565,-1.4555,-1.4553,-1.4658,-1.4659,-1.4707,-1.4707,-1.4708]},{"header":{"parameterUnit":"m.s-1","parameterCategory":1,"la1":30.2991,"la2":30.254,"lo1":-89.0895,"lo2":-89.0444,"dy":0.0017,"dx":0.0017,"nx":28,"ny":28,"refTime":"2023-08-31T21:00:00:Z","depth":0,"parameterNumber":3,"parameterNumberName":"V-component_of_WINDS"},"data":[0,0,0,0,0,0,0,0,0,0,0,0,0,0,0,0,0,0,0,0,0,0,0,0,0,0,0,0,0,0,0,0,0,0,0,0,0,0,0,0,0,0,0,0,0,0,0,0,0,0,0,0,0,0,0,0,0,0,0.2068,0.2068,0,0.2128,0.2129,0.213,0.2137,0.2137,0.2136,0.2136,0.2201,0.2203,0.2205,0,0,0,0,0,0,0,0,0,0,0,0,0,0.1963,0.1965,0.2068,0.2069,0.2069,0.2128,0.2129,0.213,0.2138,0.2137,0.2136,0.2136,0.22,0.2203,0.2205,0,0,0,0,0,0,0,0,0,0,0,0,0,0.2014,0.1965,0.2068,0.208,0.2082,0.2128,0.2129,0.213,0.2138,0.2137,0.2136,0.2135,0.2199,0.2202,0.2206,0.2244,0,0,0.2216,0.2218,0,0,0,0,0,0,0,0,0.2011,0.2018,0.2078,0.2079,0.2081,0.2124,0.2116,0.2168,0.2138,0.2117,0.2136,0.2135,0.2176,0.2182,0.2195,0.2247,0.225,0.2217,0.2219,0.222,0.2221,0,0,0,0,0,0,0,0.2008,0.2016,0.2092,0.2079,0.2081,0.2084,0.209,0.2126,0.2151,0.2118,0.2119,0.2126,0.2177,0.2192,0.2196,0.2251,0.2216,0.222,0.2222,0.2223,0.234,0.2341,0,0,0,0,0,0,0.2002,0.2013,0.209,0.2094,0.2043,0.2087,0.2094,0.2112,0.215,0.2155,0.2127,0.2126,0.2186,0.2192,0.2199,0.2247,0.222,0.2223,0.2225,0.2339,0.234,0.2341,0,0,0,0,0,0,0.1999,0.2008,0.2087,0.2053,0.2064,0.2089,0.2109,0.2113,0.2128,0.2157,0.2161,0.2137,0.2186,0.2194,0.2233,0.225,0.2225,0.2228,0.2338,0.2339,0.2341,0.2344,0,0,0,0,0,0,0.1996,0.2007,0.2022,0.2054,0.2065,0.212,0.211,0.2115,0.2133,0.2133,0.2167,0.2172,0.2186,0.2228,0.2236,0.2254,0.2231,0.2336,0.2338,0.234,0.2343,0.2346,0.2349,0,0,0,0,0,0.1992,0.2021,0.2022,0.2031,0.2083,0.2121,0.2128,0.2142,0.2134,0.2149,0.2168,0.2171,0.2246,0.2232,0.2242,0.226,0.2335,0.2338,0.234,0.2342,0.2345,0.2348,0,0,0,0,0,0,0.1991,0.2025,0.2027,0.2066,0.209,0.2122,0.2141,0.2145,0.2173,0.2171,0.2189,0.2197,0.2235,0.2252,0.2235,0.23,0.229,0.2295,0.2288,0.2292,0.2295,0.2291,0.2233,0,0,0,0,0,0.1995,0.2021,0.205,0.2082,0.2094,0.2115,0.2132,0.2141,0.2167,0.2178,0.2199,0.2225,0.2255,0.2274,0.2303,0.2345,0.2353,0.2363,0.2366,0.2368,0.2372,0.2396,0.2401,0.2349,0.2349,0.2349,0,0,0.2004,0.2026,0.2042,0.2082,0.2102,0.213,0.2124,0.2154,0.2175,0.2182,0.2221,0.2237,0.2268,0.2309,0.2328,0.2324,0.2388,0.2371,0.2372,0.2375,0.2399,0.2404,0.2409,0.2351,0.235,0.235,0,0,0.2035,0.2054,0.2083,0.2103,0.2132,0.2146,0.2153,0.2184,0.2195,0.2234,0.224,0.2266,0.2316,0.2338,0.2356,0.2395,0.2399,0.2404,0.2419,0.2443,0.2447,0.2451,0.2466,0.2471,0.2408,0.2408,0.2408,0,0.2043,0.2085,0.2098,0.2127,0.2146,0.2152,0.2183,0.2202,0.2239,0.2252,0.2247,0.2311,0.2331,0.2378,0.2388,0.2401,0.2411,0.2401,0.2445,0.2449,0.2453,0.2468,0.2473,0.2408,0.2408,0.2408,0.2408,0,0.2094,0.2122,0.2143,0.2178,0.2198,0.2228,0.2247,0.2266,0.2273,0.2288,0.2328,0.2353,0.2388,0.2399,0.2407,0.2447,0.2444,0.2441,0.2432,0.2458,0.2473,0.2478,0.2409,0.2409,0.2409,0.2409,0,0,0.2126,0.2168,0.2176,0.2192,0.2225,0.2248,0.2279,0.2312,0.2329,0.2354,0.2382,0.2424,0.2422,0.2442,0.2452,0.2473,0.2504,0.2468,0.2469,0.2475,0.2552,0.2554,0.2561,0.2506,0.2507,0.2508,0.255,0,0.2162,0.2216,0.2229,0.2275,0.2303,0.231,0.2336,0.236,0.2375,0.2402,0.2419,0.2449,0.2443,0.2456,0.2476,0.2496,0.252,0.2493,0.2533,0.2535,0.2527,0.2568,0.257,0.2608,0.2555,0.2556,0.2557,0,0.2211,0.2238,0.2287,0.2317,0.2329,0.2352,0.2384,0.2409,0.2436,0.2446,0.2468,0.2476,0.2509,0.2497,0.2544,0.2526,0.2543,0.2555,0.2557,0.2562,0.2548,0.2576,0.2621,0.2627,0.2566,0.2565,0.2564,0,0.2232,0.2279,0.2315,0.2329,0.2364,0.2381,0.2397,0.2424,0.2443,0.2471,0.2483,0.2515,0.2533,0.2557,0.2574,0.2563,0.262,0.2609,0.2631,0.263,0.2643,0.2643,0.2693,0.2652,0.2652,0.2652,0.2652,0,0.2271,0.2302,0.2325,0.2347,0.2381,0.2396,0.243,0.2446,0.247,0.2496,0.2504,0.2529,0.2549,0.2576,0.259,0.2628,0.2635,0.2645,0.2648,0.2645,0.2644,0.2658,0.2656,0.2654,0.2653,0.2653,0.2653,0,0.2301,0.2317,0.2357,0.2387,0.2395,0.2419,0.2446,0.2468,0.2483,0.2517,0.2525,0.2549,0.2582,0.2601,0.2643,0.2652,0.2695,0.2696,0.2685,0.2687,0.2708,0.2706,0.277,0.278,0.2731,0.2731,0.2732,0,0.2325,0.2349,0.2381,0.2399,0.2415,0.2443,0.2462,0.2478,0.2498,0.2531,0.255,0.2583,0.2611,0.2664,0.2686,0.2719,0.2722,0.2742,0.2727,0.2723,0.2724,0.2723,0.2726,0.2745,0.2746,0.2746,0.2746,0,0.2368,0.2375,0.2402,0.2432,0.2455,0.2479,0.2504,0.2518,0.2538,0.2561,0.2594,0.2616,0.2658,0.2692,0.2726,0.2744,0.2749,0.275,0.2757,0.2755,0.2748,0.2753,0.2694,0.2749,0.2749,0.2749,0.2749,0.2748,0.2397,0.2418,0.2444,0.2474,0.2494,0.2517,0.254,0.2557,0.2585,0.2621,0.2628,0.2664,0.2692,0.2738,0.2757,0.2786,0.2782,0.2792,0.2795,0.2797,0.2799,0.2742,0.2792,0.2792,0.2792,0.2792,0.2792,0,0.2441,0.2458,0.2485,0.2519,0.2543,0.2544,0.2572,0.2592,0.2623,0.2648,0.2675,0.2714,0.2747,0.2771,0.2805,0.2824,0.2827,0.2832,0.2832,0.2836,0.2799,0.279,0.2829,0.2829,0.2829,0.2829,0.2829,0.2829,0.2467,0.2503,0.2513,0.256,0.2578,0.2612,0.2628,0.2649,0.2669,0.2713,0.2739,0.2754,0.278,0.2815,0.2846,0.2852,0.2865,0.287,0.2877,0.2843,0.2839,0.2835,0.2827,0.2872,0.2873,0.2912,0.2912,0.2913]}]]